Header for Extended Forecast Station List Page

Search by: ID | Name | Date | Parm | Value | Avg | % Avg
Sort by: ID | Name | Date | Parm | Value | Avg | % Avg

Enter search or view all records.

Click on id for station plot
#IDNameDateParmValueAvg% Avg
0HWRI1BIG LOST-AT HOWELL RANCH NEAR CHILLY05-13-2024DISCHARGE (KAF)161122132
1MACI1BIG LOST-MACKAY RESERVOIR NEAR MACKAY05-13-2024INFLOW (KAF)14392155
2HALI1BIG WOOD-AT HAILEY05-13-2024DISCHARGE (KAF)157156101
3MAGI1BIG WOOD-MAGIC DAM05-13-2024INFLOW (KAF)105105101
4BITM8BITTERROOT-NEAR MISSOULA05-13-2024DISCHARGE (KAF)59288367
5BONM8BLACKFOOT-NEAR BONNER05-13-2024DISCHARGE (KAF)24754845
6BIGI1BOISE-AT GLENWOOD BRIDGE05-13-2024DISCHARGE (KAF)315269117
7LUCI1BOISE-LUCKY PEAK DAM05-13-2024INFLOW (KAF)89196293
8PARI1BOISE-NEAR PARMA05-13-2024DISCHARGE (KAF)284233122
9HOTI1BRUNEAU-NEAR HOT SPRINGS05-13-2024DISCHARGE (KAF)939993
10BULO3BULLY CREEK-BULLY CREEK DAM05-13-2024INFLOW (KAF)1MM
11BUDW1BUMPING-BUMPING LAKE DAM05-13-2024INFLOW (KAF)677688
12CHDW1CHELAN-LAKE CHELAN DAM05-13-2024INFLOW (KAF)49879762
13ABOM8CLARK FORK-ABOVE MISSOULA05-13-2024DISCHARGE (KAF)47899748
14DLGM8CLARK FORK-AT DEER LODGE05-13-2024DISCHARGE (KAF)176128
15SRGM8CLARK FORK-AT ST REGIS05-13-2024DISCHARGE (KAF)1457249858
16BELM8CLARK FORK-BELOW MISSOULA05-13-2024DISCHARGE (KAF)1070191756
17CABI1CLARK FORK-CABINET GORGE DAM05-13-2024INFLOW (KAF)4841729866
18NOXM8CLARK FORK-NOXON RAPIDS DAM05-13-2024INFLOW (KAF)4424665666
19DRMM8CLARK FORK-NR DRUMMOND05-13-2024DISCHARGE (KAF)7517942
20CLUW1CLE ELUM-CLE ELUM LAKE05-13-2024INFLOW (KAF)18225671
21ORFI1CLEARWATER-AT OROFINO05-13-2024DISCHARGE (KAF)2243278181
22SPDI1CLEARWATER-AT SPALDING05-13-2024DISCHARGE (KAF)4019482483
23COEI1COEUR D ALENE-COEUR D ALENE LAKE05-13-2024INFLOW (KAF)553108751
24CIBW1COLUMBIA-AT INTL BOUNDARY05-13-2024DISCHARGE (KAF)225422966376
25BONO3COLUMBIA-BONNEVILLE DAM05-13-2024INFLOW (KAF)392964990979
26CHJW1COLUMBIA-CHIEF JOSEPH DAM05-13-2024INFLOW (KAF)224192853479
27GCDW1COLUMBIA-GRAND COULEE DAM05-13-2024INFLOW (KAF)239952996380
28JDAO3COLUMBIA-JOHN DAY DAM05-13-2024INFLOW (KAF)382994818179
29MCDW1COLUMBIA-MCNARY DAM05-13-2024INFLOW (KAF)372604810677
30PRWW1COLUMBIA-PRIEST RAPIDS DAM05-13-2024INFLOW (KAF)245333252075
31RRHW1COLUMBIA-ROCKY REACH DAM05-13-2024INFLOW (KAF)237273139876
32TDAO3COLUMBIA-THE DALLES DAM05-13-2024INFLOW (KAF)386514837880
33WANW1COLUMBIA-WANAPUM DAM05-13-2024INFLOW (KAF)245823241576
34WELW1COLUMBIA-WELLS DAM05-13-2024INFLOW (KAF)233263050176
35DEDI1DEADWOOD-NEAR LOWMAN05-13-2024INFLOW (KAF)708582
36MODO3DESCHUTES-AT MOODY NR BIGGS05-13-2024DISCHARGE (KAF)1125115098
37ARDW1ENTIAT-NEAR ARDENVOIR05-13-2024DISCHARGE (KAF)12315679
38CHEI1FALL RIVER-NEAR CHESTER05-13-2024DISCHARGE (KAF)19524380
39CFMM8FLATHEAD-AT COLUMBIA FALLS05-13-2024DISCHARGE (KAF)2820336184
40KERM8FLATHEAD-SELI’Š KSANKA QLISPE’ DAM05-13-2024INFLOW (KAF)3147403678
41TRYO3GRANDE RONDE-TROY05-13-2024DISCHARGE (KAF)43071960
42REXI1HENRYS FORK-AT REXBURG05-13-2024DISCHARGE (KAF)47654288
43ANTI1HENRYS FORK-AT ST. ANTHONY05-13-2024DISCHARGE (KAF)35946977
44IPDI1HENRYS FORK-ISLAND PARK DAM05-13-2024INFLOW (KAF)14316885
45HODO3HOOD-NEAR TUCKER BRIDGE05-13-2024DISCHARGE (KAF)13113696
46SERO3JOHN DAY-AT SERVICE CK05-13-2024DISCHARGE (KAF)25830983
47KADW1KACHESS-KACHESS DAM05-13-2024INFLOW (KAF)365861
48LAUW1KETTLE-AT LAURIER05-13-2024DISCHARGE (KAF)680116558
49PITW1KLICKITAT-NEAR PITT05-13-2024DISCHARGE (KAF)29931296
50BFEI1KOOTENAI-AT BONNERS FERRY05-13-2024STAGE (FT)MMM
51LEOI1KOOTENAI-AT LEONIA05-13-2024DISCHARGE (KAF)3386398585
52LYDM8KOOTENAI-LIBBY DAM05-13-2024INFLOW (KAF)4097479685
53LWRI1LITTLE WOOD-LITTLE WOOD DAM05-13-2024INFLOW (KAF)353696
54BERO3MALHEUR-AGENCY VALLEY DAM05-13-2024INFLOW (KAF)202484
55WRMO3MALHEUR-WARM SPRINGS DAM05-13-2024INFLOW (KAF)1815120
56MYKO3MCKAY CREEK-NEAR PILOT ROCK05-13-2024DISCHARGE (KAF)3566
57PATW1METHOW-NEAR PATEROS05-13-2024DISCHARGE (KAF)41864565
58WGCM8MF FLATHEAD-NEAR WEST GLACIER05-13-2024DISCHARGE (KAF)935115281
59CLFW1NACHES-NEAR CLIFFDEL05-13-2024DISCHARGE (KAF)20725382
60NACW1NACHES-NEAR NACHES05-13-2024DISCHARGE (KAF)34438390
61DWRI1NF CLEARWATER-DWORSHAK DAM05-13-2024INFLOW (KAF)978143168
62FCFM8NF FLATHEAD-NEAR COLUMBIA FALLS05-13-2024DISCHARGE (KAF)883121673
63MONO3NF JOHN DAY-AT MONUMENT05-13-2024DISCHARGE (KAF)16121575
64CSDI1NF PAYETTE-CASCADE DAM05-13-2024INFLOW (KAF)25429387
65TONW1OKANOGAN-NEAR TONASKET05-13-2024DISCHARGE (KAF)469116640
66OWYO3OWYHEE-OWYHEE DAM05-13-2024INFLOW (KAF)173109159
67EMMI1PAYETTE-NEAR EMMETT05-13-2024DISCHARGE (KAF)64285575
68ALFW1PEND OREILLE-ALBENI FALLS DAM05-13-2024INFLOW (KAF)5394788568
69HOPI1PEND OREILLE-LAKE PEND OREILLE NR HOPE05-13-2024LAKE ELEVATION (FT)MMM
70PIHI1PORTNEUF-AT POCATELLO05-13-2024DISCHARGE (KAF)6127222
71PRTI1PRIEST-NEAR PRIEST RIVER05-13-2024DISCHARGE (KAF)28849758
72RCCM8ROCK CREEK-NEAR CLINTON05-13-2024DISCHARGE (KAF)13720666
73WHBI1SALMON-AT WHITEBIRD05-13-2024DISCHARGE (KAF)3838420291
74ARAI1SF BOISE-ANDERSON RANCH DAM05-13-2024INFLOW (KAF)18726970
75HHWM8SF FLATHEAD-HUNGRY HORSE DAM05-13-2024INFLOW (KAF)1016135775
76PLDI1SF SNAKE-PALISADES DAM05-13-2024INFLOW (KAF)29032521115
77SIFI1SNAKE-AB EAGLE ROCK NR IDAHO FALLS05-13-2024DISCHARGE (KAF)22311914117
78AFRI1SNAKE-AMERICAN FALLS RESERVOIR05-13-2024INFLOW (KAF)20021533131
79SNAI1SNAKE-AT BLACKFOOT05-13-2024DISCHARGE (KAF)14031039135
80MILI1SNAKE-AT MILNER05-13-2024DISCHARGE (KAF)35348729
81WEII1SNAKE-AT WEISER05-13-2024DISCHARGE (KAF)33803062110
82SWAI1SNAKE-BELOW SWAN FALLS05-13-2024DISCHARGE (KAF)20301667122
83BRNI1SNAKE-BROWNLEE DAM05-13-2024INFLOW (KAF)36133358108
84IHDW1SNAKE-ICE HARBOR DAM05-13-2024INFLOW (KAF)121551430385
85JLKW4SNAKE-JACKSON LAKE AT DAM05-13-2024INFLOW (KAF)623605103
86LGSW1SNAKE-LITTLE GOOSE DAM05-13-2024INFLOW (KAF)120841431884
87LGDW1SNAKE-LOWER GRANITE DAM05-13-2024INFLOW (KAF)121181434185
88LMNW1SNAKE-LOWER MONUMENTAL DAM05-13-2024INFLOW (KAF)121061429685
89ALPW4SNAKE-NEAR ALPINE05-13-2024DISCHARGE (KAF)20911910109
90ANAW1SNAKE-NEAR ANATONE05-13-2024DISCHARGE (KAF)8119917788
91BFTI1SNAKE-NEAR BLACKFOOT05-13-2024DISCHARGE (KAF)14251002142
92HEII1SNAKE-NEAR HEISE05-13-2024DISCHARGE (KAF)31492914108
93JKSW4SNAKE-NEAR JACKSON05-13-2024DISCHARGE (KAF)17111557110
94SHYI1SNAKE-NEAR SHELLEY05-13-2024DISCHARGE (KAF)20361712119
95LLKW1SPOKANE-AT LONGLAKE05-13-2024INFLOW (KAF)727139252
96SPOW1SPOKANE-AT SPOKANE05-13-2024DISCHARGE (KAF)582119749
97SJMI1ST JOE-AT ST MARIES05-13-2024STAGE (FT)MMM
98SATI1ST MARIES-NEAR SANTA05-13-2024DISCHARGE (KAF)244750
99STRM8ST. REGIS-NEAR ST. REGIS05-13-2024DISCHARGE (KAF)10415070
100TNAW1TEANAWAY-BELOW FORKS05-13-2024DISCHARGE (KAF)405573
101TEAI1TETON-NEAR ST. ANTHONY05-13-2024DISCHARGE (KAF)381319119
102RILW1TIETON-RIMROCK LAKE NEAR RIMROCK05-13-2024INFLOW (KAF)12614786
103PDTO3UMATILLA-AT PENDLETON05-13-2024DISCHARGE (KAF)394292
104GIBO3UMATILLA-NEAR GIBBON05-13-2024DISCHARGE (KAF)252790
105UMAO3UMATILLA-NEAR UMATILLA05-13-2024DISCHARGE (KAF)323884
106TCHW1WALLA WALLA-NEAR TOUCHET05-13-2024DISCHARGE (KAF)264261
107WSRI1WEISER-NEAR WEISER05-13-2024DISCHARGE (KAF)171170101
108PESW1WENATCHEE-AT PESHASTIN05-13-2024DISCHARGE (KAF)83999884
109UNDW1WHITE SALMON-NEAR UNDERWOOD05-13-2024DISCHARGE (KAF)19422686
110RIDI1WILLOW CREEK-RIRIE DAM05-13-2024INFLOW (KAF)4118226
111EASW1YAKIMA-AT EASTON05-13-2024DISCHARGE (KAF)758490
112KIOW1YAKIMA-AT KIONA05-13-2024DISCHARGE (KAF)46858580
113UMTW1YAKIMA-AT UMTANUM05-13-2024DISCHARGE (KAF)64282178
114KEDW1YAKIMA-KEECHELUS LAKE05-13-2024INFLOW (KAF)466868
115PARW1YAKIMA-NEAR PARKER05-13-2024DISCHARGE (KAF)16531952